This is the latest recevied weather packets stored in our database for station/object W8BS. If no packets are shown the sender has not sent any weather packets the latest 10 day(s).
| Time | Temp. | Humidity | Pressure | Rain* | Wind** | Luminosity | Snow |
|---|---|---|---|---|---|---|---|
| 1778255823 | 14.44° C | 51% | 1014.9 hPa | 0 mm | - | 516 W/m² | - |
| 1778255520 | 14.44° C | 50% | 1015.1 hPa | 0 mm | - | 475 W/m² | - |
| 1778255217 | 14.44° C | 51% | 1015 hPa | 0 mm | - | 769 W/m² | - |
| 1778254914 | 14.44° C | 50% | 1015 hPa | 0 mm | - | 812 W/m² | - |
| 1778254611 | 14.44° C | 50% | 1015.1 hPa | 0 mm | - | 324 W/m² | - |
| 1778254308 | 14.44° C | 49% | 1014.9 hPa | 0 mm | - | 815 W/m² | - |
| 1778254004 | 14.44° C | 51% | 1015 hPa | 0 mm | - | 265 W/m² | - |
| 1778253700 | 13.89° C | 50% | 1014.8 hPa | 0 mm | - | 329 W/m² | - |
| 1778253396 | 14.44° C | 49% | 1014.8 hPa | 0 mm | - | 480 W/m² | - |
| 1778253093 | 13.89° C | 49% | 1015 hPa | 0 mm | - | 805 W/m² | - |
| 1778252790 | 13.33° C | 52% | 1015.1 hPa | 0 mm | - | 776 W/m² | - |
| 1778252487 | 13.89° C | 50% | 1015.3 hPa | 0 mm | - | 778 W/m² | - |
| 1778252183 | 13.33° C | 50% | 1015 hPa | 0 mm | - | 770 W/m² | - |
| 1778251879 | 13.33° C | 50% | 1015 hPa | 0 mm | - | 745 W/m² | - |
| 1778251577 | 13.89° C | 50% | 1014.7 hPa | 0 mm | - | 747 W/m² | - |
| 1778251275 | 13.33° C | 50% | 1015.4 hPa | 0 mm | - | 732 W/m² | - |
| 1778250972 | 13.33° C | 50% | 1015.1 hPa | 0 mm | - | 735 W/m² | - |
| 1778250669 | 13.33° C | 50% | 1015.4 hPa | 0 mm | - | 730 W/m² | - |
| 1778250365 | 13.33° C | 49% | 1014.9 hPa | 0 mm | - | 716 W/m² | - |
| 1778250062 | 13.33° C | 50% | 1015.4 hPa | 0 mm | - | 704 W/m² | - |
| 1778249759 | 12.78° C | 51% | 1015.4 hPa | 0 mm | - | 678 W/m² | - |
| 1778249456 | 12.22° C | 50% | 1015.5 hPa | 0 mm | - | 661 W/m² | - |
| 1778249153 | 12.22° C | 52% | 1015.3 hPa | 0 mm | - | 639 W/m² | - |
| 1778248849 | 12.22° C | 52% | 1015.3 hPa | 0 mm | - | 643 W/m² | - |
| 1778248539 | 12.78° C | 51% | 1015.1 hPa | 0 mm | - | 615 W/m² | - |
* Rain latest hour (hover to see other rain measurements)
** Current wind speed in m/s (hover to see current wind gust speed)